[[{"header":{"parameterUnit":"m.s-1","parameterCategory":2,"la1":30.2991,"la2":30.254,"lo1":-89.0895,"lo2":-89.0444,"dy":0.0017,"dx":0.0017,"nx":28,"ny":28,"refTime":"2024-07-08T09:00:00:Z","depth":"0","parameterNumber":2,"parameterNumberName":"U-component_of_CURRENTS"},"data":[0,0,0,0,0,0,0,0,0,0,0,0,0,0,0,0,0,0,0,0,0,0,0,0,0,0,0,0,0,0,0,0,0,0,0,0,0,0,0,0,0,0,0,0,0,0,0,0,0,0,0,0,0,0,0,0,0,0,0.2381,0.2382,0,0.2452,0.2452,0.2453,0.2429,0.2427,0.2426,0.2424,0.2509,0.2513,0.2516,0,0,0,0,0,0,0,0,0,0,0,0,0,0.2336,0.2336,0.2381,0.2382,0.2383,0.2452,0.2453,0.2454,0.2429,0.2427,0.2425,0.2424,0.2508,0.2512,0.2517,0,0,0,0,0,0,0,0,0,0,0,0,0,0.2376,0.2336,0.2381,0.2379,0.2379,0.2451,0.2453,0.2454,0.243,0.2427,0.2425,0.2423,0.2506,0.2512,0.2517,0.2599,0,0,0.2534,0.2537,0,0,0,0,0,0,0,0,0.2373,0.2377,0.2378,0.2379,0.238,0.2429,0.2468,0.2503,0.243,0.2411,0.2424,0.2421,0.2485,0.2492,0.2511,0.2603,0.2607,0.2535,0.2538,0.2541,0.2542,0,0,0,0,0,0,0,0.237,0.2375,0.2409,0.2379,0.238,0.2412,0.2414,0.2475,0.2461,0.2412,0.2411,0.2419,0.2485,0.2506,0.2513,0.2608,0.2535,0.254,0.2543,0.2545,0.2775,0.2777,0,0,0,0,0,0,0.2358,0.2372,0.2407,0.2411,0.237,0.2414,0.2417,0.2416,0.246,0.2464,0.2421,0.2417,0.2497,0.2506,0.2516,0.2625,0.2541,0.2546,0.2549,0.2772,0.2775,0.2778,0,0,0,0,0,0,0.2357,0.236,0.2404,0.2394,0.2401,0.2417,0.2416,0.2418,0.2437,0.2466,0.247,0.2436,0.2496,0.2508,0.2583,0.2627,0.2548,0.2554,0.2769,0.2773,0.2777,0.2837,0,0,0,0,0,0,0.2355,0.2359,0.2361,0.2392,0.2401,0.2457,0.2419,0.2421,0.2445,0.2441,0.2482,0.2487,0.2495,0.2575,0.2589,0.2633,0.2558,0.2765,0.2771,0.2775,0.2831,0.2842,0.2852,0,0,0,0,0,0.2353,0.2371,0.236,0.2365,0.24,0.2459,0.2468,0.2471,0.2448,0.2475,0.2501,0.2485,0.2616,0.2583,0.2598,0.2645,0.2763,0.2769,0.2775,0.2827,0.284,0.2852,0,0,0,0,0,0,0.2356,0.2371,0.236,0.238,0.2418,0.2455,0.2483,0.2482,0.2525,0.2522,0.2531,0.2542,0.263,0.2635,0.2596,0.2727,0.2684,0.2694,0.2718,0.2731,0.2741,0.2758,0.2563,0,0,0,0,0,0.2356,0.2369,0.2396,0.2416,0.2435,0.246,0.2484,0.2492,0.253,0.2544,0.257,0.2608,0.2672,0.2694,0.2754,0.2827,0.2849,0.2865,0.2875,0.2883,0.2909,0.2984,0.3004,0.2798,0.2798,0.2798,0,0,0.2361,0.2374,0.238,0.2418,0.2445,0.2496,0.2469,0.2519,0.2561,0.2553,0.2621,0.2661,0.2706,0.279,0.2827,0.2793,0.2953,0.2891,0.2898,0.292,0.2993,0.3013,0.303,0.2803,0.2802,0.2801,0,0,0.2397,0.2394,0.2423,0.2462,0.251,0.2533,0.2548,0.2595,0.2612,0.2688,0.2698,0.2767,0.284,0.2889,0.292,0.3028,0.3019,0.3033,0.3085,0.3157,0.3174,0.319,0.3234,0.3253,0.302,0.302,0.302,0,0.2408,0.2435,0.2447,0.2499,0.2531,0.255,0.2602,0.2642,0.2707,0.2737,0.2715,0.2864,0.2895,0.3013,0.3042,0.3054,0.3078,0.3028,0.317,0.3186,0.32,0.3242,0.3263,0.3024,0.3023,0.3023,0.3022,0,0.2471,0.2498,0.2529,0.2585,0.2628,0.2683,0.273,0.2776,0.279,0.2827,0.294,0.2998,0.3078,0.3099,0.3103,0.323,0.3208,0.3185,0.3132,0.3225,0.3263,0.3283,0.3029,0.3027,0.3026,0.3025,0,0,0.2486,0.2554,0.2565,0.2592,0.2674,0.2714,0.2794,0.287,0.2921,0.299,0.3074,0.3184,0.3206,0.3246,0.3269,0.3326,0.3443,0.3295,0.3297,0.333,0.3589,0.3491,0.3503,0.3436,0.344,0.3443,0.3569,0,0.2533,0.2617,0.2644,0.2726,0.2772,0.2813,0.2883,0.2956,0.3011,0.3103,0.318,0.3281,0.3263,0.3312,0.3374,0.3443,0.3501,0.3411,0.3505,0.3508,0.3402,0.3525,0.3295,0.3381,0.3588,0.3591,0.3594,0,0.2584,0.2632,0.271,0.2778,0.2801,0.2853,0.2949,0.3018,0.3148,0.3196,0.3307,0.337,0.3509,0.3463,0.3625,0.3564,0.3592,0.3622,0.3626,0.3534,0.3449,0.3327,0.3409,0.3347,0.3624,0.3621,0.3619,0,0.2582,0.2672,0.2723,0.2755,0.2848,0.2882,0.2932,0.3045,0.312,0.3272,0.3354,0.3497,0.3594,0.3669,0.3734,0.3691,0.3886,0.3827,0.3769,0.3761,0.3585,0.3554,0.3611,0.3944,0.3944,0.3944,0.3943,0,0.2617,0.2662,0.2719,0.2756,0.2826,0.288,0.2975,0.3045,0.318,0.3307,0.3405,0.3544,0.3652,0.3768,0.3795,0.3854,0.3938,0.3821,0.3807,0.3597,0.3567,0.3519,0.3509,0.3948,0.3947,0.3946,0.3946,0,0.262,0.2659,0.2724,0.2802,0.2828,0.288,0.2995,0.3084,0.3188,0.3367,0.3431,0.3616,0.377,0.3848,0.3983,0.393,0.3865,0.3979,0.3713,0.3665,0.3508,0.351,0.3378,0.3286,0.3938,0.3937,0.3936,0,0.2635,0.2666,0.2747,0.2803,0.284,0.292,0.2999,0.3093,0.3204,0.3422,0.3532,0.3712,0.3845,0.3977,0.3923,0.3941,0.3852,0.3727,0.3606,0.3508,0.3502,0.3317,0.3238,0.3398,0.3392,0.3388,0.3384,0,0.2683,0.2701,0.2761,0.287,0.2946,0.3005,0.3115,0.318,0.3328,0.3445,0.3612,0.3712,0.3827,0.3748,0.375,0.3721,0.3508,0.3634,0.3613,0.3169,0.2894,0.2793,0.3302,0.3344,0.3348,0.3351,0.3353,0.3355,0.2729,0.2782,0.2876,0.2965,0.3036,0.3083,0.3098,0.3208,0.3309,0.3413,0.3574,0.3599,0.3577,0.3536,0.3492,0.3244,0.3266,0.3096,0.3135,0.2977,0.2797,0.3213,0.3185,0.3188,0.319,0.3193,0.3195,0,0.2849,0.2904,0.2983,0.3064,0.3104,0.3125,0.3186,0.3156,0.3202,0.3288,0.3346,0.3254,0.3164,0.3112,0.2898,0.2748,0.2563,0.2688,0.2399,0.2374,0.282,0.2705,0.2472,0.2472,0.2472,0.2472,0.2472,0.2473,0.2931,0.3043,0.306,0.3122,0.3138,0.3103,0.3083,0.3015,0.3009,0.29,0.28,0.2797,0.2819,0.2714,0.2521,0.2445,0.227,0.2078,0.2191,0.2545,0.2585,0.2624,0.2514,0.2245,0.2245,0.1525,0.1521,0.1517]},{"header":{"parameterUnit":"m.s-1","parameterCategory":2,"la1":30.2991,"la2":30.254,"lo1":-89.0895,"lo2":-89.0444,"dy":0.0017,"dx":0.0017,"nx":28,"ny":28,"refTime":"2024-07-08T09:00:00:Z","depth":"0","parameterNumber":3,"parameterNumberName":"V-component_of_CURRENTS"},"data":[0,0,0,0,0,0,0,0,0,0,0,0,0,0,0,0,0,0,0,0,0,0,0,0,0,0,0,0,0,0,0,0,0,0,0,0,0,0,0,0,0,0,0,0,0,0,0,0,0,0,0,0,0,0,0,0,0,0,0.0133,0.0133,0,0.0159,0.016,0.016,0.0154,0.0154,0.0153,0.0153,0.0171,0.0172,0.0173,0,0,0,0,0,0,0,0,0,0,0,0,0,0.0126,0.0126,0.0133,0.0133,0.0133,0.0159,0.016,0.016,0.0155,0.0154,0.0153,0.0152,0.0171,0.0172,0.0173,0,0,0,0,0,0,0,0,0,0,0,0,0,0.0139,0.0126,0.0133,0.0133,0.0133,0.0159,0.016,0.016,0.0155,0.0154,0.0153,0.0152,0.017,0.0172,0.0174,0.0201,0,0,0.0178,0.0179,0,0,0,0,0,0,0,0,0.0138,0.014,0.0132,0.0133,0.0133,0.0152,0.0164,0.0173,0.0155,0.0147,0.0153,0.0152,0.0164,0.0166,0.0175,0.0202,0.0203,0.0179,0.0179,0.018,0.0181,0,0,0,0,0,0,0,0.0137,0.0139,0.0144,0.0133,0.0133,0.0148,0.0149,0.0166,0.0161,0.0148,0.0147,0.0149,0.0164,0.0173,0.0175,0.0203,0.0178,0.018,0.0181,0.0181,0.0242,0.0242,0,0,0,0,0,0,0.013,0.0138,0.0143,0.0145,0.0132,0.0149,0.0149,0.0147,0.0161,0.0162,0.015,0.0149,0.0171,0.0173,0.0176,0.0222,0.018,0.0182,0.0183,0.0241,0.0242,0.0242,0,0,0,0,0,0,0.013,0.0131,0.0142,0.0141,0.0144,0.0149,0.0148,0.0148,0.0159,0.0162,0.0163,0.0159,0.017,0.0173,0.0197,0.0222,0.0182,0.0184,0.024,0.0241,0.0242,0.0307,0,0,0,0,0,0,0.013,0.013,0.0131,0.0141,0.0143,0.0166,0.0148,0.015,0.016,0.0159,0.017,0.0171,0.017,0.0195,0.0199,0.0223,0.0185,0.0239,0.0241,0.0242,0.0304,0.031,0.0315,0,0,0,0,0,0.0129,0.0139,0.0131,0.0132,0.0142,0.0167,0.017,0.0172,0.0162,0.0176,0.018,0.0171,0.0205,0.0197,0.0202,0.0227,0.0239,0.024,0.0242,0.0301,0.0308,0.0315,0,0,0,0,0,0,0.0139,0.014,0.0131,0.014,0.0152,0.0165,0.0179,0.0177,0.0193,0.0192,0.0188,0.019,0.0218,0.0212,0.0203,0.0245,0.0217,0.022,0.0261,0.0268,0.0273,0.0314,0.0186,0,0,0,0,0,0.014,0.0145,0.015,0.0158,0.0165,0.0172,0.0182,0.0185,0.0197,0.0203,0.021,0.0215,0.0228,0.0239,0.0248,0.0279,0.0277,0.0294,0.0299,0.0304,0.0339,0.0351,0.0362,0.0247,0.0247,0.0247,0,0,0.0145,0.0146,0.0149,0.0161,0.017,0.0202,0.0177,0.0199,0.023,0.0204,0.0247,0.0239,0.0239,0.0271,0.0283,0.0271,0.0329,0.0306,0.0311,0.0343,0.0354,0.0365,0.0376,0.0248,0.0248,0.0248,0,0,0.0173,0.0161,0.0182,0.0197,0.0214,0.0225,0.0232,0.0251,0.0262,0.0298,0.0283,0.0298,0.0316,0.0329,0.0335,0.0379,0.0357,0.0364,0.0434,0.0445,0.0455,0.0464,0.0453,0.0461,0.037,0.037,0.037,0,0.0179,0.0207,0.0194,0.0226,0.0252,0.0239,0.0285,0.0298,0.0322,0.0349,0.032,0.037,0.0353,0.0413,0.0415,0.0397,0.0387,0.041,0.0455,0.0464,0.0472,0.0459,0.0466,0.0373,0.0373,0.0372,0.0372,0,0.0231,0.0256,0.0274,0.0309,0.0334,0.037,0.0387,0.0414,0.0419,0.0436,0.049,0.0477,0.0515,0.0493,0.0466,0.0519,0.0486,0.0458,0.0443,0.0488,0.047,0.0477,0.0378,0.0377,0.0376,0.0375,0,0,0.0246,0.03,0.0308,0.0352,0.0385,0.0422,0.047,0.0527,0.0585,0.0588,0.0674,0.0661,0.0657,0.0664,0.0633,0.063,0.0647,0.0568,0.0567,0.0567,0.0656,0.0593,0.0593,0.0621,0.0624,0.0625,0.0611,0,0.0297,0.0378,0.0391,0.0484,0.0536,0.0549,0.0608,0.0652,0.0682,0.0757,0.0751,0.0812,0.0721,0.075,0.0733,0.0685,0.0672,0.0653,0.0606,0.0605,0.0551,0.0603,0.0616,0.0603,0.0618,0.0619,0.062,0,0.0352,0.0405,0.05,0.0599,0.0624,0.0675,0.0782,0.0835,0.0911,0.0938,0.0987,0.0987,0.1013,0.0922,0.0873,0.0862,0.077,0.071,0.0708,0.0643,0.0556,0.0564,0.0614,0.0541,0.063,0.0629,0.0629,0,0.0395,0.0489,0.0574,0.0605,0.0703,0.0758,0.0814,0.0893,0.0974,0.107,0.1151,0.1157,0.1192,0.1102,0.0961,0.0927,0.0889,0.0828,0.0686,0.0679,0.0683,0.0673,0.0674,0.0794,0.0794,0.0794,0.0794,0,0.0455,0.0526,0.0603,0.0655,0.0782,0.0822,0.0962,0.1016,0.1131,0.1271,0.1257,0.1374,0.1236,0.1196,0.104,0.0892,0.095,0.0726,0.0688,0.07,0.0692,0.062,0.056,0.0793,0.0793,0.0794,0.0794,0,0.0497,0.0539,0.0653,0.0763,0.0808,0.0901,0.1058,0.1167,0.1252,0.1443,0.1493,0.1542,0.15,0.1332,0.1186,0.1004,0.0803,0.0782,0.079,0.0753,0.0541,0.0484,0.0436,0.0377,0.065,0.0648,0.0647,0,0.0532,0.0591,0.073,0.0811,0.0867,0.1003,0.1114,0.1223,0.1359,0.1567,0.1686,0.1699,0.1747,0.1495,0.1188,0.0917,0.0792,0.0716,0.0652,0.056,0.0468,0.0427,0.0378,0.0672,0.0671,0.0671,0.067,0,0.0607,0.0648,0.0736,0.0899,0.1024,0.1179,0.1345,0.1466,0.1635,0.1797,0.1997,0.2048,0.1829,0.1582,0.1174,0.097,0.0667,0.069,0.0619,0.0518,0.0456,0.037,0.0628,0.0664,0.0664,0.0665,0.0665,0.0665,0.0661,0.0732,0.0848,0.1006,0.1156,0.1349,0.1482,0.1674,0.1899,0.2151,0.2191,0.2281,0.1923,0.1393,0.1114,0.0626,0.0616,0.0482,0.0428,0.0401,0.033,0.0557,0.0525,0.0525,0.0525,0.0525,0.0525,0,0.0732,0.0811,0.0956,0.1145,0.1322,0.139,0.1643,0.1786,0.2049,0.2261,0.2412,0.2274,0.1857,0.1398,0.0745,0.0434,0.0317,0.0281,0.026,0.0224,0.0464,0.0452,0.0376,0.0376,0.0376,0.0376,0.0376,0.0376,0.0775,0.0901,0.0975,0.1257,0.1398,0.1622,0.1764,0.1974,0.2152,0.2377,0.2429,0.2442,0.2137,0.111,0.0462,0.0289,0.0106,0.0044,-0.0049,0.015,0.0166,0.0181,0.0159,0.0023,0.0023,-0.024,-0.0243,-0.0245]}],[{"header":{"parameterUnit":"m.s-1","parameterCategory":2,"la1":30.2991,"la2":30.254,"lo1":-89.0895,"lo2":-89.0444,"dy":0.0017,"dx":0.0017,"nx":28,"ny":28,"refTime":"2024-07-08T09:00:00:Z","depth":"2","parameterNumber":2,"parameterNumberName":"U-component_of_CURRENTS"},"data":[0,0,0,0,0,0,0,0,0,0,0,0,0,0,0,0,0,0,0,0,0,0,0,0,0,0,0,0,0,0,0,0,0,0,0,0,0,0,0,0,0,0,0,0,0,0,0,0,0,0,0,0,0,0,0,0,0,0,0.2291,0.2292,0,0.2364,0.2365,0.2366,0.2353,0.2352,0.235,0.2349,0.2415,0.2418,0.2422,0,0,0,0,0,0,0,0,0,0,0,0,0,0.2258,0.2258,0.2291,0.2292,0.2292,0.2363,0.2365,0.2366,0.2354,0.2352,0.235,0.2348,0.2414,0.2418,0.2422,0,0,0,0,0,0,0,0,0,0,0,0,0,0.2297,0.2258,0.2291,0.2293,0.2294,0.2363,0.2365,0.2366,0.2354,0.2352,0.235,0.2347,0.2413,0.2418,0.2422,0.2496,0,0,0.2437,0.2439,0,0,0,0,0,0,0,0,0.2295,0.2299,0.2292,0.2293,0.2294,0.2345,0.2377,0.2408,0.2355,0.2334,0.2349,0.2346,0.2392,0.2398,0.242,0.2499,0.2502,0.2437,0.244,0.2442,0.2443,0,0,0,0,0,0,0,0.2292,0.2296,0.2322,0.2293,0.2294,0.233,0.2333,0.2384,0.2376,0.2335,0.2334,0.2339,0.2392,0.2415,0.2421,0.2503,0.2437,0.2441,0.2444,0.2446,0.2634,0.2636,0,0,0,0,0,0,0.2275,0.2293,0.232,0.2324,0.2287,0.2332,0.2335,0.2333,0.2375,0.2379,0.2341,0.2338,0.2408,0.2416,0.2423,0.2524,0.2442,0.2446,0.2449,0.2632,0.2635,0.2637,0,0,0,0,0,0,0.2274,0.2277,0.2317,0.2309,0.2316,0.2334,0.2333,0.2335,0.2359,0.2379,0.2383,0.236,0.2407,0.2417,0.247,0.2525,0.2449,0.2453,0.263,0.2633,0.2636,0.2717,0,0,0,0,0,0,0.2273,0.2276,0.2279,0.2307,0.2316,0.2366,0.2335,0.2338,0.2364,0.2362,0.2398,0.2401,0.2406,0.2463,0.2475,0.253,0.2457,0.2627,0.2631,0.2635,0.2712,0.2723,0.2732,0,0,0,0,0,0.2271,0.2288,0.2278,0.2282,0.2315,0.2367,0.2377,0.2383,0.2367,0.2394,0.2408,0.24,0.2497,0.2469,0.2482,0.254,0.2625,0.263,0.2635,0.2707,0.2721,0.2732,0,0,0,0,0,0,0.2278,0.2289,0.2279,0.2296,0.2329,0.2364,0.2394,0.2395,0.2431,0.2429,0.2433,0.244,0.2519,0.2514,0.2483,0.2605,0.2559,0.2567,0.261,0.2623,0.2633,0.2645,0.246,0,0,0,0,0,0.2279,0.2293,0.2312,0.2331,0.2348,0.2373,0.2396,0.2404,0.2434,0.2447,0.247,0.25,0.2554,0.257,0.262,0.2683,0.2695,0.2726,0.2737,0.2745,0.2764,0.2822,0.2839,0.2653,0.2653,0.2653,0,0,0.2285,0.2297,0.2301,0.2334,0.2361,0.2404,0.2383,0.243,0.2469,0.2453,0.2518,0.2552,0.2583,0.266,0.2692,0.2656,0.2806,0.2752,0.2759,0.2773,0.2829,0.2847,0.2863,0.2657,0.2656,0.2655,0,0,0.2322,0.2319,0.2347,0.2377,0.242,0.2441,0.2454,0.2498,0.252,0.2584,0.2593,0.2654,0.2714,0.2757,0.2782,0.2881,0.2874,0.289,0.2939,0.2995,0.3011,0.3025,0.3068,0.3085,0.2876,0.2876,0.2876,0,0.2334,0.2357,0.2369,0.2412,0.2439,0.2457,0.2503,0.2543,0.2598,0.2632,0.2609,0.2747,0.2768,0.2879,0.2903,0.2909,0.2925,0.2888,0.3009,0.3023,0.3036,0.3076,0.3094,0.2881,0.288,0.288,0.2879,0,0.2388,0.2411,0.244,0.2487,0.2527,0.2573,0.2616,0.2663,0.2684,0.2721,0.2834,0.2879,0.2954,0.2974,0.2965,0.3081,0.3059,0.3029,0.2976,0.306,0.3097,0.3114,0.2887,0.2886,0.2884,0.2883,0,0,0.2403,0.2462,0.2473,0.2495,0.2565,0.26,0.2679,0.2755,0.281,0.2877,0.2964,0.3062,0.309,0.3122,0.314,0.3176,0.3278,0.3134,0.3135,0.3174,0.3395,0.3246,0.325,0.3261,0.3264,0.3267,0.3385,0,0.2443,0.2516,0.2541,0.2612,0.265,0.269,0.2761,0.2834,0.2895,0.2986,0.3062,0.316,0.3146,0.3192,0.3239,0.328,0.3326,0.3249,0.331,0.3313,0.3168,0.3266,0.2979,0.3048,0.3401,0.3404,0.3406,0,0.2483,0.2526,0.2597,0.266,0.2682,0.2729,0.2833,0.29,0.303,0.3085,0.32,0.3258,0.338,0.3329,0.346,0.3406,0.3417,0.3426,0.343,0.3276,0.3196,0.3022,0.3066,0.3435,0.3432,0.343,0.3428,0,0.2479,0.2558,0.2609,0.2634,0.272,0.2761,0.2813,0.2932,0.3011,0.3162,0.324,0.3379,0.3468,0.3516,0.3545,0.3513,0.3649,0.3606,0.3493,0.3482,0.3243,0.3205,0.3697,0.3696,0.3696,0.3696,0.3696,0,0.2502,0.2547,0.2605,0.2632,0.2707,0.2761,0.286,0.2938,0.3074,0.32,0.3296,0.3417,0.3515,0.3599,0.3598,0.36,0.3703,0.3533,0.3513,0.3261,0.3225,0.3554,0.3536,0.37,0.3699,0.3698,0.3698,0,0.2501,0.2544,0.2608,0.2683,0.2706,0.2767,0.2881,0.2976,0.3081,0.3252,0.3312,0.3482,0.3591,0.3649,0.3737,0.3664,0.3674,0.364,0.333,0.327,0.3462,0.3447,0.3553,0.3549,0.3545,0.3542,0.354,0,0.2513,0.2534,0.2623,0.2683,0.2722,0.2803,0.2887,0.2989,0.3107,0.3291,0.3399,0.3534,0.361,0.3659,0.3588,0.3561,0.3644,0.3243,0.3125,0.3482,0.3453,0.3443,0.3433,0.2857,0.2849,0.2843,0.2838,0,0.2528,0.2556,0.2611,0.2718,0.2809,0.2902,0.3018,0.307,0.3223,0.3314,0.3431,0.3466,0.352,0.3342,0.3282,0.3223,0.3217,0.3109,0.3596,0.2914,0.2829,0.2798,0.2811,0.2781,0.2786,0.2791,0.2794,0.2796,0.2557,0.2582,0.2656,0.2762,0.2887,0.2989,0.2999,0.3075,0.3153,0.317,0.3316,0.3212,0.3167,0.2922,0.2804,0.2702,0.2933,0.275,0.277,0.2796,0.2671,0.2581,0.2465,0.2469,0.2472,0.2475,0.2477,0,0.2586,0.2623,0.2698,0.2811,0.2911,0.3004,0.3097,0.3029,0.2995,0.2972,0.2937,0.2599,0.2442,0.2422,0.2181,0.2119,0.2103,0.2014,0.1976,0.2033,0.2085,0.1923,0.1519,0.1516,0.1513,0.1511,0,0,0.2612,0.2666,0.267,0.2799,0.2894,0.2953,0.297,0.28,0.2717,0.2456,0.2297,0.2346,0.2374,0.1939,0.1842,0.1656,0.1842,0.1579,0.2352,0.2371,0.242,0.2513,0.2329,0,0,0,0,0]},{"header":{"parameterUnit":"m.s-1","parameterCategory":2,"la1":30.2991,"la2":30.254,"lo1":-89.0895,"lo2":-89.0444,"dy":0.0017,"dx":0.0017,"nx":28,"ny":28,"refTime":"2024-07-08T09:00:00:Z","depth":"2","parameterNumber":3,"parameterNumberName":"V-component_of_CURRENTS"},"data":[0,0,0,0,0,0,0,0,0,0,0,0,0,0,0,0,0,0,0,0,0,0,0,0,0,0,0,0,0,0,0,0,0,0,0,0,0,0,0,0,0,0,0,0,0,0,0,0,0,0,0,0,0,0,0,0,0,0,0.0041,0.0041,0,0.0068,0.0068,0.0069,0.0067,0.0066,0.0066,0.0065,0.0078,0.0079,0.008,0,0,0,0,0,0,0,0,0,0,0,0,0,0.0039,0.0039,0.0041,0.0041,0.0042,0.0068,0.0068,0.0069,0.0067,0.0066,0.0066,0.0065,0.0078,0.0079,0.008,0,0,0,0,0,0,0,0,0,0,0,0,0,0.0052,0.0039,0.0041,0.0043,0.0043,0.0068,0.0068,0.0069,0.0067,0.0066,0.0065,0.0065,0.0078,0.0079,0.008,0.0105,0,0,0.0084,0.0085,0,0,0,0,0,0,0,0,0.0051,0.0052,0.0042,0.0043,0.0043,0.0062,0.0072,0.008,0.0067,0.006,0.0065,0.0064,0.0071,0.0073,0.0082,0.0105,0.0106,0.0084,0.0085,0.0086,0.0086,0,0,0,0,0,0,0,0.005,0.0051,0.0054,0.0042,0.0043,0.0059,0.0059,0.0074,0.0071,0.006,0.006,0.006,0.0071,0.0081,0.0083,0.0106,0.0084,0.0086,0.0086,0.0087,0.0133,0.0133,0,0,0,0,0,0,0.0041,0.005,0.0053,0.0054,0.0043,0.0059,0.006,0.0058,0.0071,0.0072,0.0061,0.006,0.0079,0.0081,0.0083,0.0127,0.0086,0.0087,0.0088,0.0133,0.0133,0.0134,0,0,0,0,0,0,0.0041,0.0041,0.0052,0.0051,0.0054,0.0059,0.0058,0.0059,0.0071,0.0071,0.0072,0.0071,0.0079,0.0081,0.0099,0.0126,0.0088,0.0089,0.0132,0.0133,0.0133,0.0205,0,0,0,0,0,0,0.0041,0.0041,0.0042,0.0051,0.0053,0.0074,0.0058,0.006,0.0071,0.007,0.008,0.0081,0.0078,0.0097,0.01,0.0127,0.009,0.0131,0.0132,0.0133,0.0202,0.0208,0.0213,0,0,0,0,0,0.0041,0.005,0.0042,0.0042,0.0052,0.0075,0.0078,0.0081,0.0072,0.0087,0.0087,0.008,0.0104,0.0099,0.0102,0.0131,0.0131,0.0132,0.0133,0.0199,0.0207,0.0213,0,0,0,0,0,0,0.0051,0.005,0.0042,0.0049,0.0062,0.0074,0.0088,0.0086,0.01,0.0099,0.0094,0.0095,0.0119,0.0111,0.0105,0.0142,0.0114,0.0116,0.0163,0.017,0.0175,0.0207,0.0091,0,0,0,0,0,0.0052,0.0057,0.006,0.0068,0.0075,0.0082,0.0091,0.0094,0.0104,0.011,0.0116,0.0118,0.0127,0.0136,0.0142,0.017,0.0157,0.0185,0.0191,0.0196,0.0222,0.0215,0.0223,0.0137,0.0137,0.0137,0,0,0.0057,0.0058,0.006,0.007,0.008,0.0109,0.0087,0.0108,0.0137,0.011,0.0151,0.0142,0.0137,0.0166,0.0176,0.0164,0.0209,0.0197,0.0202,0.0226,0.0217,0.0226,0.0234,0.0138,0.0137,0.0137,0,0,0.0084,0.0073,0.0093,0.0106,0.0122,0.0132,0.0139,0.0157,0.0169,0.0201,0.0185,0.0198,0.0212,0.0222,0.0225,0.0266,0.0237,0.0254,0.0317,0.0309,0.0317,0.0324,0.0304,0.0308,0.0259,0.0259,0.0259,0,0.0091,0.0116,0.0104,0.0132,0.0156,0.0145,0.0188,0.02,0.0223,0.0247,0.0222,0.0263,0.0247,0.0299,0.03,0.0284,0.0263,0.0295,0.0319,0.0325,0.0331,0.0309,0.0313,0.0263,0.0262,0.0262,0.0262,0,0.0137,0.016,0.0177,0.0209,0.0232,0.0266,0.0282,0.0308,0.0315,0.033,0.0378,0.0365,0.0397,0.0378,0.035,0.0388,0.0353,0.0325,0.0307,0.0344,0.0318,0.0321,0.0268,0.0267,0.0265,0.0265,0,0,0.0152,0.0201,0.0209,0.0247,0.0279,0.0312,0.0358,0.0412,0.0463,0.0468,0.0543,0.0533,0.0529,0.0532,0.0503,0.0485,0.0484,0.042,0.0418,0.0411,0.0455,0.0378,0.0373,0.0452,0.0453,0.0454,0.0416,0,0.0199,0.0272,0.0285,0.0369,0.0415,0.0428,0.0483,0.0524,0.0553,0.0617,0.0611,0.0664,0.0588,0.0612,0.0585,0.0521,0.0496,0.0496,0.0412,0.041,0.0346,0.0376,0.0401,0.0365,0.0419,0.0419,0.0419,0,0.0248,0.0296,0.0384,0.0472,0.0494,0.0542,0.0641,0.0689,0.0755,0.0782,0.0825,0.0821,0.0834,0.0751,0.0678,0.0677,0.0577,0.0505,0.0502,0.0415,0.034,0.0338,0.0367,0.0424,0.0423,0.0423,0.0423,0,0.0285,0.037,0.045,0.0476,0.0565,0.0618,0.0671,0.0743,0.082,0.09,0.0968,0.0967,0.0992,0.0886,0.0734,0.0711,0.0624,0.0579,0.0418,0.0411,0.0411,0.0402,0.0519,0.0519,0.0519,0.0519,0.0519,0,0.0336,0.0403,0.0476,0.0521,0.0636,0.0675,0.0803,0.0854,0.0961,0.1088,0.1066,0.1155,0.1021,0.0957,0.0795,0.062,0.0675,0.0446,0.0405,0.0432,0.0425,0.0461,0.0455,0.0517,0.0518,0.0518,0.0518,0,0.0369,0.0414,0.0518,0.0619,0.0658,0.0745,0.0891,0.0989,0.1071,0.1242,0.1285,0.1303,0.1229,0.106,0.0885,0.0707,0.054,0.0451,0.048,0.0443,0.0317,0.0315,0.0301,0.0298,0.0296,0.0294,0.0292,0,0.0397,0.0445,0.058,0.0652,0.0705,0.083,0.0927,0.104,0.1173,0.1343,0.145,0.1422,0.1418,0.1118,0.0838,0.0562,0.0515,0.0351,0.0309,0.0338,0.0299,0.0301,0.0302,0.0335,0.0334,0.0333,0.0332,0,0.0439,0.0483,0.0563,0.0699,0.0816,0.0981,0.1141,0.1249,0.1419,0.1562,0.171,0.1702,0.1449,0.1172,0.0762,0.0569,0.04,0.0318,0.0374,0.0371,0.0363,0.0327,0.0329,0.0324,0.0325,0.0325,0.0326,0.0326,0.0465,0.0522,0.0611,0.0746,0.0912,0.1124,0.1252,0.1428,0.1637,0.1824,0.1837,0.1806,0.1494,0.0966,0.0654,0.0331,0.0356,0.0201,0.0208,0.0215,0.021,0.0197,0.0126,0.0125,0.0125,0.0125,0.0125,0,0.045,0.0519,0.0647,0.0813,0.0994,0.112,0.1397,0.1535,0.1763,0.1861,0.1946,0.1626,0.1314,0.0971,0.0502,0.0192,0.0196,0.0075,0.0159,0.017,0.0179,0.0174,0.0079,0.0078,0.0077,0.0076,0,0,0.045,0.0528,0.0594,0.0845,0.1005,0.1271,0.1459,0.1672,0.1808,0.1868,0.1829,0.1742,0.1366,0.0992,0.0617,0.0358,0.0323,0.0291,0.036,0.0515,0.0527,0.0283,0.0291,0,0,0,0,0]}],[{"header":{"parameterUnit":"m.s-1","parameterCategory":2,"la1":30.2991,"la2":30.254,"lo1":-89.0895,"lo2":-89.0444,"dy":0.0017,"dx":0.0017,"nx":28,"ny":28,"refTime":"2024-07-08T09:00:00:Z","depth":"4","parameterNumber":2,"parameterNumberName":"U-component_of_CURRENTS"},"data":[0,0,0,0,0,0,0,0,0,0,0,0,0,0,0,0,0,0,0,0,0,0,0,0,0,0,0,0,0,0,0,0,0,0,0,0,0,0,0,0,0,0,0,0,0,0,0,0,0,0,0,0,0,0,0,0,0,0,0.1366,0.1366,0,0.1392,0.1392,0.1392,0.1444,0.1445,0.1446,0.1448,0.1488,0.1488,0.1488,0,0,0,0,0,0,0,0,0,0,0,0,0,0.1336,0.1336,0.1366,0.1366,0.1367,0.1392,0.1392,0.1392,0.1444,0.1445,0.1447,0.1448,0.1488,0.1488,0.1488,0,0,0,0,0,0,0,0,0,0,0,0,0,0.1353,0.1336,0.1366,0.1397,0.14,0.1392,0.1392,0.1392,0.1444,0.1445,0.1447,0.1449,0.1488,0.1488,0.1488,0.1452,0,0,0.1488,0.1488,0,0,0,0,0,0,0,0,0.1352,0.1353,0.1392,0.1395,0.1398,0.1418,0.1397,0.1413,0.1443,0.1425,0.1448,0.145,0.1466,0.1468,0.1466,0.1453,0.1455,0.1488,0.1488,0.1488,0.1488,0,0,0,0,0,0,0,0.135,0.1352,0.1374,0.1392,0.1396,0.1401,0.1406,0.14,0.1434,0.1427,0.1431,0.1436,0.1468,0.1466,0.1467,0.1456,0.1488,0.1488,0.1488,0.1487,0.1557,0.1559,0,0,0,0,0,0,0.135,0.1351,0.1373,0.1375,0.1381,0.1401,0.1405,0.1408,0.1434,0.144,0.1435,0.1439,0.1465,0.1467,0.1469,0.1528,0.1488,0.1487,0.1487,0.1555,0.1557,0.1559,0,0,0,0,0,0,0.1349,0.1352,0.1372,0.1366,0.1369,0.14,0.1402,0.1408,0.1439,0.144,0.1446,0.1464,0.1466,0.1469,0.1501,0.1526,0.1487,0.1487,0.1553,0.1556,0.1558,0.1582,0,0,0,0,0,0,0.1348,0.1351,0.1366,0.1365,0.1369,0.1386,0.1401,0.1407,0.1438,0.1444,0.1466,0.147,0.1468,0.1501,0.1501,0.1526,0.1487,0.1551,0.1554,0.1558,0.1579,0.1585,0.1591,0,0,0,0,0,0.1347,0.135,0.1366,0.137,0.1384,0.1387,0.1389,0.1416,0.1438,0.145,0.1477,0.1471,0.1524,0.1502,0.1501,0.1527,0.1549,0.1553,0.1557,0.1576,0.1584,0.159,0,0,0,0,0,0,0.1346,0.1355,0.1373,0.1381,0.1396,0.1397,0.1412,0.1429,0.1457,0.1475,0.1481,0.1486,0.1524,0.1526,0.1502,0.1562,0.154,0.1545,0.1555,0.1562,0.1568,0.1614,0.1487,0,0,0,0,0,0.1351,0.1359,0.137,0.1381,0.139,0.1408,0.1419,0.1436,0.1454,0.147,0.149,0.1517,0.1534,0.155,0.1562,0.1584,0.1606,0.1608,0.1614,0.1619,0.166,0.1712,0.1726,0.1573,0.1573,0.1573,0,0,0.1358,0.1361,0.137,0.1382,0.1397,0.1408,0.1419,0.1441,0.1465,0.1467,0.1517,0.1532,0.1545,0.1577,0.1595,0.1586,0.1668,0.1624,0.1628,0.1667,0.1718,0.1733,0.1746,0.1576,0.1576,0.1575,0,0,0.1354,0.1376,0.1379,0.1389,0.1413,0.1424,0.1438,0.1461,0.1493,0.1531,0.1545,0.1591,0.161,0.1635,0.1645,0.1695,0.1693,0.1694,0.1763,0.1811,0.1824,0.1836,0.1852,0.1865,0.1701,0.1701,0.1701,0,0.1366,0.1368,0.1383,0.1385,0.1403,0.1436,0.1451,0.1476,0.1513,0.155,0.156,0.1634,0.1646,0.1692,0.1727,0.1709,0.1728,0.1724,0.1819,0.1831,0.1843,0.1856,0.1871,0.1703,0.1702,0.1702,0.1702,0,0.1353,0.137,0.1373,0.1393,0.1414,0.1431,0.1468,0.151,0.1559,0.1594,0.1669,0.1696,0.1755,0.1755,0.1763,0.1849,0.183,0.1811,0.1796,0.186,0.1869,0.1884,0.1705,0.1704,0.1704,0.1704,0,0,0.1344,0.1363,0.137,0.1389,0.1424,0.1441,0.1492,0.1552,0.1611,0.1664,0.174,0.1797,0.1843,0.1864,0.1871,0.1927,0.2017,0.1924,0.1926,0.1933,0.2112,0.1943,0.1942,0.2012,0.2016,0.2019,0.2073,0,0.1339,0.1347,0.1363,0.1398,0.1413,0.1464,0.1511,0.1576,0.1648,0.1729,0.1787,0.1862,0.187,0.1916,0.1975,0.2023,0.2063,0.2004,0.2059,0.2061,0.1897,0.1957,0.203,0.2084,0.2087,0.2089,0.2091,0,0.1317,0.1332,0.1361,0.1415,0.1431,0.147,0.1575,0.1625,0.1737,0.1792,0.1885,0.1937,0.2052,0.2035,0.2162,0.2127,0.2143,0.2158,0.2159,0.2016,0.192,0.2017,0.2117,0.2115,0.2113,0.2112,0.211,0,0.1291,0.1331,0.1363,0.1377,0.1443,0.1496,0.1556,0.1665,0.1718,0.1861,0.1933,0.2039,0.2113,0.2184,0.2245,0.2226,0.2351,0.231,0.2155,0.2142,0.2266,0.2253,0.2384,0.2384,0.2384,0.2384,0.2383,0,0.1255,0.1278,0.1367,0.1378,0.1428,0.151,0.1601,0.1659,0.1784,0.1848,0.199,0.2047,0.2165,0.2241,0.2279,0.2268,0.2379,0.2194,0.2159,0.2268,0.2255,0.2273,0.226,0.2385,0.2385,0.2385,0.2384,0,0.1188,0.1242,0.1272,0.1373,0.1406,0.1453,0.1578,0.163,0.1796,0.1887,0.1941,0.2081,0.2185,0.2264,0.2351,0.2285,0.2304,0.2253,0.2366,0.2331,0.2051,0.2038,0.2105,0.21,0.2095,0.2092,0.2089,0,0.1144,0.1158,0.1248,0.1247,0.1289,0.1387,0.1423,0.1585,0.1626,0.188,0.1877,0.2054,0.2129,0.2139,0.2218,0.2251,0.221,0.219,0.2134,0.2071,0.2031,0.2025,0.2018,0.2082,0.208,0.2079,0.2078,0,0.1043,0.1091,0.1106,0.1111,0.1145,0.1199,0.128,0.132,0.1517,0.1689,0.1794,0.1889,0.1972,0.2026,0.2051,0.207,0.2204,0.2143,0.2152,0.21,0.2043,0.2006,0.2005,0.2063,0.2065,0.2066,0.2067,0,0.0949,0.0931,0.0945,0.0939,0.096,0.0985,0.1084,0.1162,0.1258,0.1548,0.1562,0.1791,0.1928,0.193,0.1968,0.1968,0.1935,0.186,0.1883,0.19,0.1807,0.1704,0.1612,0,0,0,0,0,0.0829,0.0774,0.076,0.0731,0.0753,0.0797,0.0936,0.1058,0.1283,0.1296,0.1441,0.153,0.1645,0.1733,0.1692,0.1843,0.1914,0.1783,0.1831,0.1978,0.1996,0.1904,0,0,0,0,0,0,0.0719,0.0683,0.0697,0.0563,0.0532,0.0561,0.0682,0.0857,0.0884,0.1133,0.1193,0.1381,0.149,0.163,0.1638,0.1663,0.1651,0.1902,0.1897,0.1968,0.1984,0.1998,0.191,0,0,0,0,0]},{"header":{"parameterUnit":"m.s-1","parameterCategory":2,"la1":30.2991,"la2":30.254,"lo1":-89.0895,"lo2":-89.0444,"dy":0.0017,"dx":0.0017,"nx":28,"ny":28,"refTime":"2024-07-08T09:00:00:Z","depth":"4","parameterNumber":3,"parameterNumberName":"V-component_of_CURRENTS"},"data":[0,0,0,0,0,0,0,0,0,0,0,0,0,0,0,0,0,0,0,0,0,0,0,0,0,0,0,0,0,0,0,0,0,0,0,0,0,0,0,0,0,0,0,0,0,0,0,0,0,0,0,0,0,0,0,0,0,0,-0.0024,-0.0024,0,-0.0001,-0.0001,-0.0,-0.0005,-0.0005,-0.0006,-0.0006,0.0013,0.0014,0.0015,0,0,0,0,0,0,0,0,0,0,0,0,0,-0.0033,-0.0033,-0.0024,-0.0024,-0.0024,-0.0001,-0.0001,-0.0,-0.0005,-0.0005,-0.0006,-0.0007,0.0013,0.0014,0.0015,0,0,0,0,0,0,0,0,0,0,0,0,0,-0.002,-0.0033,-0.0024,-0.0024,-0.0024,-0.0001,-0.0001,-0.0,-0.0005,-0.0005,-0.0006,-0.0007,0.0012,0.0014,0.0015,0.004,0,0,0.002,0.0021,0,0,0,0,0,0,0,0,-0.0021,-0.002,-0.0024,-0.0024,-0.0024,-0.0008,0.0003,0.0013,-0.0004,-0.0011,-0.0006,-0.0007,0.0006,0.0008,0.0015,0.0041,0.0042,0.002,0.0021,0.0022,0.0022,0,0,0,0,0,0,0,-0.0022,-0.0021,-0.0014,-0.0024,-0.0024,-0.0012,-0.0011,0.0005,0.0002,-0.001,-0.0011,-0.001,0.0006,0.0014,0.0016,0.0042,0.002,0.0021,0.0022,0.0023,0.0081,0.0082,0,0,0,0,0,0,-0.0028,-0.0022,-0.0014,-0.0013,-0.0026,-0.0011,-0.001,-0.0011,0.0002,0.0003,-0.0009,-0.001,0.0012,0.0014,0.0016,0.0053,0.0022,0.0023,0.0024,0.0081,0.0081,0.0082,0,0,0,0,0,0,-0.0028,-0.0028,-0.0015,-0.0018,-0.0015,-0.0011,-0.0011,-0.001,-0.0004,0.0003,0.0004,-0.0004,0.0011,0.0014,0.0037,0.0054,0.0024,0.0025,0.008,0.0081,0.0082,0.0123,0,0,0,0,0,0,-0.0029,-0.0028,-0.0028,-0.0018,-0.0016,0.0005,-0.001,-0.0009,-0.0002,-0.0003,0.0008,0.0009,0.0011,0.0034,0.0038,0.0055,0.0026,0.0079,0.008,0.0082,0.0121,0.0125,0.0129,0,0,0,0,0,-0.0029,-0.0023,-0.0028,-0.0027,-0.0017,0.0006,0.0009,0.001,-0.0001,0.0011,0.0016,0.0009,0.0044,0.0037,0.0041,0.0059,0.0079,0.008,0.0081,0.0119,0.0125,0.0129,0,0,0,0,0,0,-0.0025,-0.0022,-0.0028,-0.0022,-0.0008,0.0004,0.0015,0.0013,0.0027,0.0024,0.0024,0.0026,0.0049,0.0049,0.004,0.0077,0.0058,0.006,0.0085,0.009,0.0094,0.009,0.0028,0,0,0,0,0,-0.0025,-0.0021,-0.0013,-0.0007,-0.0,0.0007,0.0015,0.0017,0.0029,0.0033,0.0042,0.0049,0.006,0.007,0.0081,0.0108,0.0079,0.0119,0.0123,0.0127,0.0126,0.0093,0.0093,0.0087,0.0087,0.0087,0,0,-0.0022,-0.002,-0.0018,-0.0005,0.0003,0.0028,0.001,0.0028,0.0049,0.0034,0.0067,0.0066,0.007,0.0097,0.0107,0.0099,0.0114,0.0129,0.0132,0.0129,0.0094,0.0095,0.0095,0.0088,0.0088,0.0088,0,0,-0.0004,-0.0011,0.0004,0.0018,0.0033,0.0043,0.0048,0.0065,0.0073,0.0103,0.0093,0.0101,0.0128,0.0132,0.0136,0.017,0.0135,0.0172,0.0196,0.0164,0.0164,0.0164,0.0127,0.0123,0.0177,0.0177,0.0177,0,-0.0002,0.0017,0.0014,0.0037,0.0054,0.0052,0.0082,0.0095,0.0118,0.0124,0.0119,0.0138,0.0145,0.0163,0.0177,0.018,0.015,0.0178,0.0169,0.0168,0.0166,0.0129,0.0124,0.0179,0.0179,0.0179,0.0179,0,0.0034,0.005,0.0063,0.009,0.011,0.0135,0.0151,0.0168,0.0173,0.0179,0.0195,0.0196,0.0205,0.0209,0.0208,0.0208,0.0185,0.0174,0.0154,0.0169,0.0129,0.0123,0.0183,0.0182,0.0181,0.0181,0,0,0.0037,0.0078,0.0083,0.0107,0.0139,0.0162,0.0194,0.0222,0.0237,0.0246,0.0257,0.0275,0.0257,0.026,0.0251,0.0228,0.0201,0.0202,0.02,0.0163,0.012,0.0115,0.0107,0.0183,0.0182,0.0182,0.0095,0,0.0067,0.0118,0.0134,0.019,0.0219,0.023,0.0265,0.0284,0.0293,0.0303,0.0285,0.0299,0.0283,0.0287,0.026,0.0224,0.0187,0.0224,0.0113,0.011,0.0101,0.0101,0.0179,0.009,0.0089,0.0088,0.0087,0,0.0098,0.013,0.0187,0.0239,0.0253,0.0289,0.0329,0.0361,0.0367,0.0367,0.0358,0.034,0.0327,0.0299,0.0227,0.025,0.0186,0.0143,0.0138,0.0114,0.0094,0.0072,0.0076,0.0077,0.0077,0.0078,0.0079,0,0.0107,0.0166,0.0213,0.0233,0.0292,0.032,0.0355,0.0379,0.0411,0.0407,0.0421,0.0378,0.0367,0.0291,0.0218,0.0218,0.0115,0.0104,0.0028,0.0026,0.0038,0.0039,0.0022,0.0022,0.0023,0.0023,0.0023,0,0.0132,0.0168,0.0223,0.0252,0.0311,0.0345,0.0407,0.0422,0.0453,0.0496,0.046,0.0469,0.0362,0.0299,0.0217,0.0113,0.0113,0.0027,0.0004,0.0058,0.0062,0.0033,0.0035,0.002,0.002,0.0021,0.0022,0,0.0133,0.0168,0.0226,0.0294,0.0319,0.0364,0.0454,0.0501,0.0522,0.0573,0.0579,0.0528,0.0452,0.0339,0.0201,0.0122,0.0019,-0.003,0.0034,0.0016,-0.0053,-0.0047,-0.0119,-0.012,-0.0121,-0.0121,-0.0122,0,0.0139,0.0168,0.0252,0.0306,0.0344,0.0419,0.0483,0.0526,0.0577,0.062,0.0642,0.0576,0.0531,0.0342,0.0203,0.0024,-0.0008,-0.0077,-0.0066,-0.0052,-0.0068,-0.0061,-0.0054,-0.0123,-0.0123,-0.0124,-0.0124,0,0.0154,0.0182,0.024,0.0347,0.0425,0.0509,0.0594,0.0622,0.0685,0.0698,0.0706,0.0618,0.051,0.0347,0.0193,0.0068,-0.0031,-0.0086,-0.0085,-0.0075,-0.0058,-0.0071,-0.0064,-0.0126,-0.0126,-0.0126,-0.0126,0,0.0174,0.0214,0.0306,0.0397,0.0499,0.0592,0.0622,0.0691,0.0731,0.076,0.075,0.0658,0.0578,0.0368,0.0243,0.0107,0.0069,0.0018,0.0013,0.0014,0.0078,0.0121,0.0086,0,0,0,0,0,0.0207,0.0271,0.0359,0.0471,0.0572,0.0632,0.071,0.0732,0.0759,0.0776,0.0769,0.0682,0.0496,0.0404,0.0269,0.0209,0.003,0.0042,-0.0034,-0.0141,-0.0138,-0.0085,0,0,0,0,0,0,0.024,0.0331,0.0369,0.0522,0.0605,0.0722,0.0769,0.0784,0.0781,0.0782,0.0681,0.0642,0.0449,0.0583,0.0269,0.0225,0.0155,-0.0046,-0.005,-0.0143,-0.014,-0.0138,-0.0082,0,0,0,0,0]}]]